Date,TemperatureHighF,TemperatureAvgF,TemperatureLowF,DewpointHighF,DewpointAvgF,DewpointLowF,HumidityHigh,HumidityAvg,HumidityLow,PressureMaxIn,PressureMinIn,WindSpeedMaxMPH,WindSpeedAvgMPH,GustSpeedMaxMPH,PrecipitationSumIn
2013-2-1,47.0,39.4,30.0,22.0,15.5,10.0,54,38,24,0.00,40.00,25,10,31,0.00
2013-2-2,56.0,43.5,32.0,16.0,8.8,0.0,52,28,10,0.00,40.00,21,8,25,0.00
2013-2-3,50.0,42.7,33.0,13.0,3.9,-2.0,27,20,13,0.00,40.00,15,6,18,0.00
2013-2-4,45.0,43.1,40.0,12.0,10.3,5.0,27,25,20,0.00,40.00,30,13,37,0.00
2013-2-5,46.0,44.5,42.0,19.0,14.2,11.0,35,29,25,0.00,40.00,19,9,23,0.00
2013-2-6,53.0,49.4,42.0,20.0,18.9,18.0,40,30,25,0.00,40.00,4,2,6,0.00
2013-2-7,44.0,36.8,29.0,31.0,16.6,2.0,94,46,25,0.00,40.00,11,6,14,0.00
2013-2-8,45.0,35.6,31.0,11.0,6.3,2.0,39,29,20,0.00,40.00,8,5,10,0.00
2013-2-9,32.0,27.8,23.0,30.0,22.5,15.0,99,81,55,0.00,40.00,13,6,15,0.00
2013-2-10,31.0,25.4,21.0,21.0,16.6,13.0,91,70,47,0.00,40.00,12,5,14,0.00
2013-2-11,24.0,20.0,16.0,16.0,14.4,8.0,97,79,63,0.00,40.00,12,5,14,0.00
2013-2-12,38.0,27.5,19.0,8.0,-0.4,-6.0,59,33,15,0.00,40.00,19,10,23,0.00
2013-2-13,43.0,36.9,31.0,12.0,8.7,6.0,34,30,21,0.00,40.00,31,19,37,0.00
2013-2-14,38.0,26.1,19.0,23.0,16.3,8.0,98,70,27,0.00,40.00,21,7,24,0.00
2013-2-15,38.0,25.6,14.0,17.0,13.1,8.0,90,62,28,0.00,40.00,15,5,17,0.00
2013-2-16,48.0,48.0,48.0,9.0,9.0,9.0,20,20,20,0.00,40.00,22,22,24,0.00
2013-2-19,40.0,36.0,31.0,8.0,6.6,6.0,33,28,24,0.00,40.00,8,5,10,0.00
2013-2-20,33.0,25.7,19.0,26.0,18.0,15.0,99,74,46,0.00,40.00,12,6,13,0.00
2013-2-21,23.0,17.6,13.0,22.0,16.5,12.0,98,95,83,0.00,40.00,9,4,9,0.00
2013-2-22,31.0,19.5,14.0,19.0,14.2,4.0,97,80,46,0.00,40.00,10,4,11,0.00
2013-2-23,44.0,32.6,22.0,28.0,13.8,0.0,91,48,29,0.00,40.00,19,10,25,0.00
2013-2-24,26.0,23.4,20.0,26.0,23.4,20.0,100,98,97,0.00,40.00,24,13,28,0.00
2013-2-25,38.0,23.2,11.0,19.0,11.2,6.0,98,64,27,0.00,40.00,10,4,12,0.00
2013-2-26,30.0,24.0,19.0,25.0,16.4,7.0,95,73,58,0.00,40.00,15,7,17,0.00
2013-2-27,36.0,24.0,17.0,17.0,8.9,-1.0,79,54,29,0.00,40.00,17,5,21,0.00
2013-2-28,40.0,32.8,25.0,13.0,7.7,-1.0,42,34,22,0.00,40.00,31,16,38,0.00